Location: Newark
(9.4667°S, 159.8167°E)
Time: 17:40:24
(UTC+00:00)

Courier 1B Rocket - Visible Passes

Search period start: 22 November 2019 00:00
Search period end: 02 December 2019 00:00
Orbit: 920 x 1202 km, 28.2° (Epoch: 21 November)

Date Brightness Start Highest point End Pass type
(mag) Time Alt. Az. Time Alt. Az. Time Alt. Az.
22 Nov 7.2 16:07:49 15° SSW 16:09:19 16° S 16:13:25 10° SSE visible
22 Nov 7.3 18:00:35 10° SSW 18:04:34 16° S 18:08:26 10° SE visible
23 Nov 7.2 09:19:32 10° NNW 09:20:55 14° N 09:20:55 14° N visible
23 Nov 7.4 15:10:17 16° SSE 15:10:17 16° SSE 15:12:35 10° SSE visible
23 Nov 7.4 16:59:05 10° SSW 17:02:55 15° S 17:06:38 10° SE visible
24 Nov 6.9 08:20:06 10° N 08:23:41 14° NNE 08:24:28 13° NE visible
24 Nov 7.5 10:10:16 10° NW 10:10:54 13° NW 10:10:54 13° NW visible
24 Nov 7.3 15:59:08 14° SSW 16:01:13 16° S 16:05:09 10° SSE visible
24 Nov 7.2 17:51:35 10° SSW 17:56:25 20° SSE 18:01:02 10° ESE visible
25 Nov 6.3 09:09:39 10° NNW 09:14:37 29° N 09:14:37 29° N visible
25 Nov 7.5 15:01:41 15° SSE 15:01:41 15° SSE 15:03:58 10° SSE visible
25 Nov 7.3 16:50:21 10° SSW 16:54:49 17° S 16:59:07 10° SE visible
26 Nov 6.5 08:09:29 10° NNW 08:15:02 21° NNE 08:18:30 16° ENE visible
26 Nov 6.5 10:01:07 10° NW 10:04:58 32° NW 10:04:58 32° NW visible
26 Nov 7.4 15:50:39 14° SSW 15:53:07 16° S 15:57:18 10° SE visible
26 Nov 6.9 17:42:28 10° SW 17:48:09 26° SSE 17:53:31 10° ESE visible
27 Nov 5.6 09:00:13 10° NW 09:07:33 48° NNE 09:09:00 44° ENE visible
27 Nov 7.4 10:53:46 10° WNW 10:55:28 18° W 10:55:28 18° W visible
27 Nov 7.6 14:53:21 15° SSE 14:53:21 15° SSE 14:55:43 10° SE visible
27 Nov 7.2 16:41:21 10° SW 16:46:39 21° SSE 16:51:40 10° ESE visible
28 Nov 6.1 07:59:41 10° NNW 08:06:16 32° NNE 08:13:04 10° E visible
28 Nov 5.4 09:52:17 10° WNW 09:59:38 79° WSW 09:59:38 79° WSW visible
28 Nov 7.3 15:42:35 16° SSW 15:44:59 19° S 15:49:44 10° SE visible
28 Nov 6.5 17:33:21 10° SW 17:39:46 36° SSE 17:45:47 10° E visible
29 Nov 5.3 08:51:08 10° NW 08:58:43 71° NNE 09:03:51 24° ESE visible
29 Nov 6.7 10:45:28 10° W 10:50:21 34° WSW 10:50:21 34° WSW visible
29 Nov 7.6 14:45:35 15° SSE 14:45:35 15° SSE 14:47:50 10° SE visible
29 Nov 6.8 16:32:15 10° SW 16:38:21 28° SSE 16:44:06 10° ESE visible
29 Nov 5.4 18:25:29 10° WSW 18:32:28 75° SSE 18:38:57 10° ENE visible
30 Nov 5.6 07:50:19 10° NW 07:57:26 49° NNE 08:04:53 10° ESE visible
30 Nov 5.8 09:43:45 10° WNW 09:51:19 58° SSW 09:54:34 35° SE visible
30 Nov 7.7 11:39:40 10° WSW 11:41:03 14° WSW 11:41:03 14° WSW visible
30 Nov 7.1 15:35:14 22° S 15:36:46 23° SSE 15:42:13 10° ESE visible
30 Nov 5.9 17:24:16 10° SW 17:31:17 52° SSE 17:37:46 10° E visible
01 Dec 5.5 08:42:22 10° WNW 08:49:54 81° SSW 08:57:48 10° ESE visible
01 Dec 6.7 10:37:28 10° W 10:44:15 32° SSW 10:45:07 31° S visible
01 Dec 7.7 14:38:44 14° SE 14:38:44 14° SE 14:40:12 10° SE visible
01 Dec 6.4 16:25:11 19° SW 16:29:56 38° SSE 16:36:18 10° E visible
01 Dec 5.1 18:16:43 10° WSW 18:23:48 73° NNW 18:30:21 10° NE visible
